<?xml version="1.0"?>
<gpx xmlns="http://www.topografix.com/GPX/1/1" xmlns:xsi="http://www.w3.org/2001/XMLSchema-instance" version="1.1" creator="GPX RubyGem 1.0.0 -- http://dougfales.github.io/gpx/" xsi:schemaLocation="http://www.topografix.com/GPX/1/1 http://www.topografix.com/GPX/1/1/gpx.xsd">
  <metadata>
    <name/>
    <time>2026-05-08T23:40:28+00:00</time>
    <bound minlat="90.0" minlon="180.0" maxlat="-90.0" maxlon="-180.0"/>
  </metadata>
  <trk>
    <name/>
    <trkseg>
      <trkpt lat="49.422154" lon="8.705684">
        <time>1970-01-01T00:00:00+00:00</time>
        <ele>384.0</ele>
      </trkpt>
      <trkpt lat="49.422181" lon="8.705742">
        <time>1970-01-01T00:00:00+00:00</time>
        <ele>384.0</ele>
      </trkpt>
      <trkpt lat="49.422222" lon="8.705838">
        <time>1970-01-01T00:00:00+00:00</time>
        <ele>385.0</ele>
      </trkpt>
      <trkpt lat="49.422132" lon="8.705852">
        <time>1970-01-01T00:00:00+00:00</time>
        <ele>384.0</ele>
      </trkpt>
      <trkpt lat="49.422144" lon="8.706059">
        <time>1970-01-01T00:00:00+00:00</time>
        <ele>384.0</ele>
      </trkpt>
      <trkpt lat="49.422266" lon="8.706471">
        <time>1970-01-01T00:00:00+00:00</time>
        <ele>384.0</ele>
      </trkpt>
      <trkpt lat="49.42239" lon="8.70668">
        <time>1970-01-01T00:00:00+00:00</time>
        <ele>385.0</ele>
      </trkpt>
      <trkpt lat="49.422538" lon="8.70688">
        <time>1970-01-01T00:00:00+00:00</time>
        <ele>386.0</ele>
      </trkpt>
      <trkpt lat="49.42355" lon="8.708117">
        <time>1970-01-01T00:00:00+00:00</time>
        <ele>384.0</ele>
      </trkpt>
      <trkpt lat="49.424217" lon="8.708867">
        <time>1970-01-01T00:00:00+00:00</time>
        <ele>377.0</ele>
      </trkpt>
      <trkpt lat="49.425078" lon="8.709531">
        <time>1970-01-01T00:00:00+00:00</time>
        <ele>369.0</ele>
      </trkpt>
      <trkpt lat="49.426403" lon="8.710698">
        <time>1970-01-01T00:00:00+00:00</time>
        <ele>359.0</ele>
      </trkpt>
      <trkpt lat="49.426623" lon="8.710926">
        <time>1970-01-01T00:00:00+00:00</time>
        <ele>358.0</ele>
      </trkpt>
      <trkpt lat="49.426803" lon="8.711176">
        <time>1970-01-01T00:00:00+00:00</time>
        <ele>358.0</ele>
      </trkpt>
      <trkpt lat="49.426891" lon="8.711341">
        <time>1970-01-01T00:00:00+00:00</time>
        <ele>358.0</ele>
      </trkpt>
      <trkpt lat="49.427262" lon="8.711908">
        <time>1970-01-01T00:00:00+00:00</time>
        <ele>362.0</ele>
      </trkpt>
      <trkpt lat="49.427398" lon="8.712159">
        <time>1970-01-01T00:00:00+00:00</time>
        <ele>364.0</ele>
      </trkpt>
      <trkpt lat="49.427469" lon="8.712342">
        <time>1970-01-01T00:00:00+00:00</time>
        <ele>365.0</ele>
      </trkpt>
      <trkpt lat="49.427553" lon="8.712477">
        <time>1970-01-01T00:00:00+00:00</time>
        <ele>367.0</ele>
      </trkpt>
      <trkpt lat="49.427636" lon="8.712778">
        <time>1970-01-01T00:00:00+00:00</time>
        <ele>366.0</ele>
      </trkpt>
      <trkpt lat="49.427957" lon="8.713365">
        <time>1970-01-01T00:00:00+00:00</time>
        <ele>367.0</ele>
      </trkpt>
      <trkpt lat="49.428367" lon="8.714164">
        <time>1970-01-01T00:00:00+00:00</time>
        <ele>377.0</ele>
      </trkpt>
      <trkpt lat="49.428778" lon="8.714851">
        <time>1970-01-01T00:00:00+00:00</time>
        <ele>388.0</ele>
      </trkpt>
      <trkpt lat="49.428963" lon="8.715092">
        <time>1970-01-01T00:00:00+00:00</time>
        <ele>392.0</ele>
      </trkpt>
      <trkpt lat="49.428986" lon="8.715145">
        <time>1970-01-01T00:00:00+00:00</time>
        <ele>392.0</ele>
      </trkpt>
      <trkpt lat="49.428986" lon="8.715145">
        <time>1970-01-01T00:00:00+00:00</time>
        <ele>392.0</ele>
      </trkpt>
      <trkpt lat="49.428963" lon="8.715092">
        <time>1970-01-01T00:00:00+00:00</time>
        <ele>392.0</ele>
      </trkpt>
      <trkpt lat="49.428778" lon="8.714851">
        <time>1970-01-01T00:00:00+00:00</time>
        <ele>388.0</ele>
      </trkpt>
      <trkpt lat="49.428367" lon="8.714164">
        <time>1970-01-01T00:00:00+00:00</time>
        <ele>377.0</ele>
      </trkpt>
      <trkpt lat="49.427957" lon="8.713365">
        <time>1970-01-01T00:00:00+00:00</time>
        <ele>367.0</ele>
      </trkpt>
      <trkpt lat="49.427636" lon="8.712778">
        <time>1970-01-01T00:00:00+00:00</time>
        <ele>366.0</ele>
      </trkpt>
      <trkpt lat="49.427553" lon="8.712477">
        <time>1970-01-01T00:00:00+00:00</time>
        <ele>367.0</ele>
      </trkpt>
      <trkpt lat="49.427536" lon="8.711512">
        <time>1970-01-01T00:00:00+00:00</time>
        <ele>377.0</ele>
      </trkpt>
      <trkpt lat="49.427553" lon="8.711318">
        <time>1970-01-01T00:00:00+00:00</time>
        <ele>378.0</ele>
      </trkpt>
      <trkpt lat="49.427585" lon="8.71116">
        <time>1970-01-01T00:00:00+00:00</time>
        <ele>379.0</ele>
      </trkpt>
      <trkpt lat="49.427471" lon="8.710831">
        <time>1970-01-01T00:00:00+00:00</time>
        <ele>379.0</ele>
      </trkpt>
      <trkpt lat="49.427362" lon="8.710537">
        <time>1970-01-01T00:00:00+00:00</time>
        <ele>380.0</ele>
      </trkpt>
      <trkpt lat="49.427191" lon="8.710189">
        <time>1970-01-01T00:00:00+00:00</time>
        <ele>384.0</ele>
      </trkpt>
      <trkpt lat="49.427159" lon="8.710133">
        <time>1970-01-01T00:00:00+00:00</time>
        <ele>385.0</ele>
      </trkpt>
      <trkpt lat="49.42704" lon="8.710007">
        <time>1970-01-01T00:00:00+00:00</time>
        <ele>388.0</ele>
      </trkpt>
      <trkpt lat="49.426629" lon="8.70965">
        <time>1970-01-01T00:00:00+00:00</time>
        <ele>396.0</ele>
      </trkpt>
      <trkpt lat="49.426314" lon="8.709253">
        <time>1970-01-01T00:00:00+00:00</time>
        <ele>403.0</ele>
      </trkpt>
      <trkpt lat="49.425962" lon="8.708992">
        <time>1970-01-01T00:00:00+00:00</time>
        <ele>404.0</ele>
      </trkpt>
      <trkpt lat="49.425631" lon="8.708682">
        <time>1970-01-01T00:00:00+00:00</time>
        <ele>407.0</ele>
      </trkpt>
      <trkpt lat="49.425255" lon="8.708155">
        <time>1970-01-01T00:00:00+00:00</time>
        <ele>419.0</ele>
      </trkpt>
      <trkpt lat="49.425007" lon="8.707864">
        <time>1970-01-01T00:00:00+00:00</time>
        <ele>424.0</ele>
      </trkpt>
      <trkpt lat="49.424777" lon="8.707557">
        <time>1970-01-01T00:00:00+00:00</time>
        <ele>426.0</ele>
      </trkpt>
      <trkpt lat="49.42457" lon="8.707188">
        <time>1970-01-01T00:00:00+00:00</time>
        <ele>426.0</ele>
      </trkpt>
      <trkpt lat="49.424455" lon="8.707163">
        <time>1970-01-01T00:00:00+00:00</time>
        <ele>423.0</ele>
      </trkpt>
      <trkpt lat="49.42393" lon="8.707069">
        <time>1970-01-01T00:00:00+00:00</time>
        <ele>409.0</ele>
      </trkpt>
      <trkpt lat="49.423703" lon="8.707072">
        <time>1970-01-01T00:00:00+00:00</time>
        <ele>404.0</ele>
      </trkpt>
      <trkpt lat="49.423391" lon="8.70693">
        <time>1970-01-01T00:00:00+00:00</time>
        <ele>401.0</ele>
      </trkpt>
      <trkpt lat="49.423368" lon="8.706809">
        <time>1970-01-01T00:00:00+00:00</time>
        <ele>401.0</ele>
      </trkpt>
      <trkpt lat="49.423235" lon="8.70657">
        <time>1970-01-01T00:00:00+00:00</time>
        <ele>403.0</ele>
      </trkpt>
      <trkpt lat="49.423191" lon="8.706423">
        <time>1970-01-01T00:00:00+00:00</time>
        <ele>402.0</ele>
      </trkpt>
      <trkpt lat="49.423175" lon="8.706304">
        <time>1970-01-01T00:00:00+00:00</time>
        <ele>401.0</ele>
      </trkpt>
      <trkpt lat="49.423099" lon="8.706095">
        <time>1970-01-01T00:00:00+00:00</time>
        <ele>400.0</ele>
      </trkpt>
      <trkpt lat="49.422974" lon="8.706008">
        <time>1970-01-01T00:00:00+00:00</time>
        <ele>399.0</ele>
      </trkpt>
      <trkpt lat="49.422667" lon="8.705922">
        <time>1970-01-01T00:00:00+00:00</time>
        <ele>394.0</ele>
      </trkpt>
      <trkpt lat="49.422552" lon="8.705849">
        <time>1970-01-01T00:00:00+00:00</time>
        <ele>392.0</ele>
      </trkpt>
      <trkpt lat="49.422222" lon="8.705838">
        <time>1970-01-01T00:00:00+00:00</time>
        <ele>385.0</ele>
      </trkpt>
      <trkpt lat="49.422181" lon="8.705742">
        <time>1970-01-01T00:00:00+00:00</time>
        <ele>384.0</ele>
      </trkpt>
      <trkpt lat="49.422154" lon="8.705684">
        <time>1970-01-01T00:00:00+00:00</time>
        <ele>384.0</ele>
      </trkpt>
    </trkseg>
  </trk>
</gpx>
